Location: ???????????
(55.5758°N, 38.4970°E)
Time: 17:36:43
(UTC+00:00)

NOSS 3-2 (A) - Pass Details

Date: 15 November 2025
Orbit: 668 x 1535 km, 63.4° (Epoch: 11 December)

Event Time Altitude Azimuth Distance (km) Brightness Sun altitude
Exits shadow 03:19:10 16° 306° (NW) 2,515 5.1 -14.0°
Maximum altitude 03:25:01 73° 225° (SW) 1,279 4.0 -13.2°
Drops below altitude 10° 03:33:31 10° 143° (SE) 3,487 7.2 -12.0°
Sets 03:36:39 0° 142° (SE) 4,546 7.9 -11.6°
